EW5836 Weather Reports


Display with metric or nautical units.
time (UTC)temp
F
wind
direction
speed
MPH
gust
MPH
rain 1hr
in
rain 24hr
in
rain mn
in
humidity
%
barometer
mb
20260506233536 53 347 0.0 0.0 0.00 7.60 0.00 94 1011.8
20260506233049 53 347 0.0 0.0 0.00 7.60 0.00 94 1011.8
20260506232532 53 347 0.0 0.0 0.00 7.60 0.00 94 1011.8
20260506232042 53 347 0.0 0.0 0.00 7.60 0.00 93 1011.7
20260506231544 53 347 0.0 0.0 0.00 7.60 0.00 93 1011.7
20260506231042 54 347 0.0 0.0 0.00 7.60 0.00 93 1011.7
20260506230548 54 347 0.0 0.0 0.00 7.60 0.00 93 1011.7
20260506230038 54 347 0.0 0.0 0.00 7.60 0.00 93 1011.6
20260506225542 54 347 0.0 0.0 0.04 7.60 0.00 92 1011.5
20260506225059 55 347 0.0 0.0 0.04 7.60 0.00 92 1011.6
20260506224541 55 347 0.0 0.0 0.04 7.60 0.00 92 1011.5
20260506224033 55 347 0.0 0.0 0.04 7.60 0.00 92 1011.5
20260506223538 55 347 0.0 0.0 0.04 7.60 0.00 92 1011.4
20260506223030 56 347 0.0 0.0 0.04 7.60 0.00 92 1011.4
20260506222534 55 347 0.0 0.0 0.04 7.60 0.00 92 1011.4
20260506222045 55 347 0.0 0.0 0.04 7.60 0.00 92 1011.3
20260506221546 55 347 0.0 0.0 0.04 7.60 0.00 92 1011.3
20260506221035 55 347 0.0 0.0 0.04 7.60 0.00 93 1011.4
20260506220537 56 347 0.0 0.0 0.04 7.60 0.00 93 1011.7
20260506220047 56 347 0.0 0.0 0.04 7.60 0.00 93 1011.7
20260506215543 56 347 0.0 0.0 0.00 7.56 1.51 93 1011.7
20260506215034 56 347 0.0 0.0 0.00 7.56 1.51 93 1011.6
20260506214540 56 347 0.0 0.0 0.00 7.56 1.51 93 1011.6
20260506214038 55 347 0.0 0.0 0.00 7.56 1.51 93 1011.7
20260506213544 55 354 0.0 0.0 0.00 7.56 1.51 94 1011.6
20260506213043 55 354 0.0 0.0 0.00 7.56 1.51 94 1011.6
20260506212544 55 354 0.0 0.0 0.00 7.56 1.51 94 1011.6
20260506212104 55 354 0.0 0.0 0.00 7.56 1.51 93 1011.5
20260506211548 55 354 0.0 0.0 0.00 7.56 1.51 93 1011.3
20260506211036 55 354 0.0 0.0 0.00 7.56 1.51 93 1011.3
20260506210541 55 354 0.0 0.0 0.00 7.56 1.51 93 1011.3
20260506210104 55 354 0.0 0.0 0.00 7.56 1.51 93 1011.3
20260506205542 56 354 0.0 0.0 0.00 7.56 1.51 93 1011.3
20260506205035 56 354 0.0 0.0 0.00 7.56 1.51 93 1011.2
20260506204700 56 354 0.0 0.0 0.00 7.56 1.51 92 1011.1
20260506204035 56 354 0.0 0.0 0.00 7.56 1.51 92 1011.1
20260506203554 56 354 0.0 0.0 0.00 7.56 1.51 92 1011.1
20260506203047 56 354 0.0 0.0 0.00 7.56 1.51 92 1011.0
20260506202610 56 354 0.0 0.0 0.00 7.56 1.51 91 1011.0
20260506202104 56 354 0.0 0.0 0.00 7.56 1.51 91 1010.9
20260506201547 56 354 0.0 0.0 0.00 7.56 1.51 92 1010.9
20260506201039 56 354 0.0 0.0 0.00 7.56 1.51 92 1010.8
20260506200534 56 354 0.0 0.0 0.00 7.56 1.51 92 1010.7
20260506200108 56 354 0.0 0.0 0.00 7.56 1.51 92 1010.7
20260506195541 56 354 0.0 0.0 0.00 7.56 1.51 92 1010.6
20260506195032 56 354 0.0 0.0 0.00 7.56 1.51 92 1010.5
20260506194534 56 354 0.0 0.0 0.00 7.56 1.51 92 1010.4
20260506194043 56 354 0.0 0.0 0.00 7.56 1.51 91 1010.4
20260506193549 56 354 0.0 0.0 0.00 7.56 1.51 91 1010.3
20260506193038 56 354 0.0 0.0 0.00 7.56 1.51 91 1010.2
20260506192543 56 354 0.0 0.0 0.00 7.56 1.51 91 1010.1
20260506192033 57 354 0.0 0.0 0.00 7.56 1.51 91 1010.1
20260506191535 57 354 0.0 0.0 0.00 7.56 1.51 90 1009.8
20260506191040 57 354 0.0 0.0 0.00 7.56 1.51 89 1009.8
20260506190541 57 354 0.0 0.0 0.00 7.56 1.51 88 1009.7
20260506185603 58 354 0.0 0.0 0.00 7.56 1.51 87 1009.6
20260506185035 58 354 0.0 0.0 0.00 7.56 1.51 87 1009.4
20260506184540 59 354 0.0 0.0 0.00 7.56 1.51 85 1009.4
20260506184052 59 354 0.0 0.0 0.00 7.56 1.51 84 1009.2
20260506183548 59 354 0.0 0.0 0.00 7.56 1.51 82 1009.2
20260506183040 59 354 0.0 0.0 0.00 7.56 1.51 82 1009.0
20260506182541 60 354 0.0 4.0 0.00 7.56 1.51 81 1008.9
20260506182033 60 354 0.0 5.0 0.00 7.56 1.51 81 1008.9
20260506181536 60 354 1.0 5.0 0.00 7.56 1.51 80 1008.9
20260506181057 60 354 2.0 8.0 0.00 7.56 1.51 80 1008.8
20260506180532 60 354 4.0 10.0 0.00 7.56 1.51 81 1008.7
20260506180042 60 359 4.0 10.0 0.00 7.56 1.51 82 1008.5
20260506175544 60 53 1.0 6.0 0.04 7.68 1.51 83 1008.4
20260506175035 60 31 0.0 0.0 0.04 7.68 1.51 83 1008.3
20260506174542 60 4 0.0 8.0 0.04 7.68 1.51 83 1008.2
20260506174102 60 4 4.0 8.0 0.04 7.68 1.51 83 1008.2
20260506173533 60 43 1.0 7.0 0.04 7.68 1.51 83 1008.2
20260506173046 61 359 2.0 6.0 0.04 7.68 1.51 83 1008.1
20260506172550 61 77 3.0 10.0 0.04 7.68 1.51 82 1008.2
20260506172043 61 77 2.0 11.0 0.04 7.68 1.51 82 1008.1
20260506171549 61 16 5.0 11.0 0.04 7.68 1.51 82 1008.1
20260506171042 61 16 3.0 12.0 0.04 7.68 1.51 83 1008.0
20260506170547 61 69 5.0 18.0 0.04 7.68 1.51 82 1008.0
20260506170106 62 106 10.0 18.0 0.04 7.68 1.51 81 1007.8
20260506165550 62 307 0.0 0.0 0.00 7.64 1.50 80 1007.5
20260506165038 63 307 0.0 0.0 0.00 7.64 1.50 80 1007.2
20260506164543 63 307 0.0 0.0 0.00 7.64 1.50 81 1007.1
20260506164054 63 307 0.0 0.0 0.00 7.64 1.50 81 1007.0
20260506163532 63 307 0.0 0.0 0.00 7.64 1.50 82 1007.0
20260506163051 62 299 0.0 0.0 0.00 7.64 1.50 82 1007.0
20260506162549 62 133 0.0 0.0 0.00 7.64 1.50 81 1007.0
20260506162104 62 128 0.0 0.0 0.00 7.64 1.50 81 1006.9
20260506161548 62 141 0.0 0.0 0.00 7.64 1.50 80 1006.8
20260506161040 63 340 0.0 3.0 0.00 7.64 1.50 83 1006.7
20260506160541 63 340 0.0 4.0 0.00 7.64 1.50 81 1006.6
20260506160039 63 340 1.0 11.0 0.04 7.64 1.50 80 1006.5
20260506155542 62 339 5.0 11.0 0.08 7.64 1.50 77 1006.5
20260506155038 61 324 2.0 9.0 0.12 7.64 1.50 80 1006.6
20260506154542 61 328 6.0 13.0 0.20 7.64 1.50 82 1006.7
20260506154100 60 334 9.0 13.0 0.24 7.64 1.50 82 1006.8
20260506153532 59 324 2.0 5.0 0.35 7.64 1.50 80 1007.1
20260506153044 59 328 1.0 5.0 1.14 7.64 1.50 82 1007.3
20260506152604 59 341 2.0 11.0 2.20 7.64 1.50 84 1007.4
20260506152033 59 349 4.0 11.0 2.28 7.64 1.50 84 1007.5
20260506151539 58 343 4.0 8.0 2.28 7.64 1.50 87 1007.4
20260506151035 58 327 2.0 8.0 2.28 7.64 1.50 87 1007.6
20260506150539 58 327 5.0 9.0 2.28 7.64 1.50 86 1007.7
20260506150033 58 334 6.0 9.0 2.24 7.60 1.50 86 1007.8
20260506145539 58 337 7.0 9.0 2.20 7.56 1.49 86 1007.8
20260506145032 57 345 5.0 6.0 2.17 7.52 1.48 86 1007.8
20260506144537 57 347 4.0 9.0 2.09 7.44 1.46 84 1007.8
20260506144039 57 330 1.0 10.0 2.01 7.36 1.45 80 1007.7
20260506143544 57 103 5.0 19.0 1.89 7.24 1.43 78 1007.9
20260506143036 60 310 9.0 19.0 1.02 6.38 1.25 77 1008.2
20260506142541 64 310 5.0 9.0 0.04 5.39 1.06 76 1007.7
20260506142032 65 337 0.0 0.0 0.00 5.35 1.05 71 1007.6
20260506141537 66 162 0.0 0.0 0.00 5.35 1.05 71 1007.6
20260506141104 66 162 0.0 0.0 0.00 5.35 1.05 65 1007.5
20260506140548 66 162 0.0 0.0 0.00 5.35 1.05 65 1007.5
20260506140037 66 162 0.0 0.0 0.00 5.35 1.05 65 1007.6
20260506135557 65 162 0.0 0.0 0.00 5.35 1.05 64 1007.5
20260506135043 65 162 0.0 0.0 0.00 5.35 1.05 65 1007.5
20260506134536 65 162 0.0 2.0 0.00 5.35 1.05 68 1007.6
20260506134057 65 173 0.0 7.0 0.00 5.35 1.05 66 1007.7
20260506133533 65 147 2.0 7.0 0.00 5.35 1.05 69 1007.6
20260506133047 65 158 1.0 9.0 0.00 5.35 1.05 68 1007.5
20260506132607 65 167 2.0 9.0 0.00 5.35 1.05 65 1007.7
20260506132106 65 122 3.0 7.0 0.00 5.35 1.05 65 1007.7
20260506131540 65 152 0.0 4.0 0.00 5.35 1.05 69 1007.8
20260506131057 65 113 1.0 8.0 0.00 5.35 1.05 66 1007.8
20260506130532 65 86 2.0 8.0 0.00 5.35 1.05 69 1007.8
20260506130040 65 123 0.0 7.0 0.00 5.35 1.05 70 1007.8
20260506125541 64 134 0.0 8.0 0.00 5.35 1.05 71 1007.9
20260506125054 65 152 4.0 8.0 0.00 5.35 1.05 68 1007.9
20260506124531 65 85 0.0 7.0 0.00 5.35 1.05 69 1007.9
20260506124041 64 146 1.0 7.0 0.00 5.35 1.05 71 1008.0
20260506123546 64 117 1.0 8.0 0.00 5.35 1.05 70 1008.0
20260506123037 65 105 1.0 7.0 0.00 5.35 1.05 70 1008.0
20260506122556 64 345 0.0 6.0 0.00 5.35 1.05 73 1008.0
20260506122043 64 125 1.0 6.0 0.00 5.35 1.05 69 1008.0
20260506121547 64 33 0.0 9.0 0.00 5.35 1.05 73 1008.0
20260506121034 63 79 1.0 9.0 0.00 5.35 1.05 76 1008.0
20260506120536 63 53 0.0 6.0 0.00 5.35 1.05 76 1008.1
20260506120041 63 142 0.0 8.0 0.00 5.35 1.05 77 1008.1
20260506115605 63 129 0.0 4.0 0.00 5.35 1.05 79 1008.0
20260506115059 63 128 1.0 4.0 0.00 5.35 1.05 80 1008.1
20260506114534 63 115 1.0 4.0 0.00 5.35 1.05 82 1008.1
20260506114044 62 113 0.0 3.0 0.00 5.35 1.05 84 1008.1
20260506113547 61 115 0.0 0.0 0.00 5.35 1.05 84 1008.0
20260506113035 61 116 0.0 2.0 0.00 5.35 1.05 84 1008.1
20260506112541 60 116 0.0 5.0 0.00 5.35 1.05 86 1008.0
20260506112100 60 116 1.0 5.0 0.00 5.35 1.05 85 1008.1
20260506111542 61 191 1.0 4.0 0.00 5.35 1.05 88 1008.0
20260506111031 60 131 2.0 4.0 0.00 5.35 1.05 88 1008.1
20260506110554 59 132 0.0 5.0 0.00 5.35 1.05 90 1008.1
20260506110036 59 147 2.0 5.0 0.00 5.35 1.05 89 1008.2
20260506105540 59 85 0.0 4.0 0.00 5.35 1.05 91 1008.3
20260506105059 58 81 0.0 6.0 0.00 5.35 1.05 92 1008.2
20260506104533 58 59 1.0 7.0 0.00 5.35 1.05 92 1008.3
20260506104042 58 144 0.0 2.0 0.00 5.35 1.05 94 1008.3
20260506103607 58 121 0.0 4.0 0.00 5.35 1.05 93 1008.3
20260506103034 58 147 0.0 4.0 0.00 5.35 1.05 94 1008.2
20260506102537 58 156 0.0 0.0 0.00 5.35 1.05 95 1008.1
20260506102045 57 156 0.0 0.0 0.00 5.35 1.05 95 1008.2
20260506101544 57 156 0.0 3.0 0.00 5.35 1.05 96 1008.2
20260506101059 57 156 0.0 5.0 0.00 5.35 1.05 96 1008.2
20260506100534 57 156 1.0 5.0 0.00 5.35 1.05 96 1008.2
20260506100046 56 122 0.0 4.0 0.00 5.35 1.05 97 1008.2
20260506095610 56 60 0.0 4.0 0.04 5.39 1.05 97 1008.2
20260506095037 56 133 0.0 1.0 0.04 5.39 1.05 97 1008.2
20260506094601 55 135 0.0 3.0 0.04 5.39 1.05 97 1008.1
20260506094058 55 138 0.0 3.0 0.08 5.39 1.05 97 1008.1
20260506093533 55 143 0.0 2.0 0.12 5.39 1.05 97 1008.0
20260506093042 55 326 0.0 0.0 0.16 5.39 1.05 97 1008.1
20260506092544 55 31 0.0 0.0 0.24 5.39 1.05 97 1008.2
20260506092054 55 57 0.0 2.0 0.39 5.39 1.05 97 1008.2
20260506091532 55 50 1.0 2.0 0.51 5.39 1.05 97 1008.1
20260506091042 55 241 0.0 0.0 0.75 5.39 1.05 97 1008.2
20260506090604 55 241 0.0 0.0 0.94 5.39 1.05 97 1008.1
20260506090037 54 237 0.0 5.0 1.10 5.39 1.05 97 1008.1
20260506085539 54 330 1.0 6.0 1.18 5.35 1.04 97 1008.1
20260506085057 54 316 1.0 11.0 1.22 5.35 1.04 97 1008.0
20260506084533 54 318 4.0 11.0 1.26 5.35 1.04 97 1008.0
20260506084044 54 318 4.0 10.0 1.26 5.31 1.03 97 1008.1
20260506083547 54 322 2.0 10.0 1.26 5.24 1.02 97 1008.2
20260506083037 54 295 5.0 10.0 1.30 5.24 1.02 97 1008.3
20260506082559 55 296 0.0 2.0 1.34 5.16 1.00 97 1008.4
20260506082045 54 296 0.0 4.0 1.34 5.00 0.97 97 1008.5
20260506081549 54 296 1.0 4.0 1.38 4.84 0.94 97 1008.4
20260506081039 55 295 0.0 2.0 1.38 4.61 0.89 97 1008.5
20260506080603 55 296 0.0 1.0 1.34 4.41 0.85 97 1008.7
20260506073053 55 295 0.0 2.0 2.28 3.98 0.75 97 1008.6
20260506072537 55 296 0.0 2.0 2.28 3.90 0.73 97 1008.5
20260506072051 55 296 0.0 0.0 2.13 3.70 0.69 97 1008.6
20260506071556 55 296 0.0 0.0 1.97 3.50 0.65 97 1008.6
20260506071043 55 296 0.0 0.0 1.97 3.31 0.61 97 1008.7
20260506070609 55 296 0.0 0.0 2.01 3.15 0.58 97 1008.7
20260506062054 55 296 1.0 3.0 0.63 1.73 0.27 97 1008.6
20260506061549 55 276 0.0 4.0 0.55 1.65 0.25 97 1008.6
20260506061041 55 274 1.0 4.0 0.39 1.46 0.21 97 1008.7
20260506060543 55 253 0.0 2.0 0.24 1.30 0.18 97 1008.7
20260506051045 54 145 0.0 5.0 0.47 1.77 0.13 97 1009.0
20260506050550 55 143 0.0 6.0 0.47 1.77 0.13 97 1008.9
20260506050108 55 354 4.0 5.0 0.43 1.73 0.13 97 1008.9
20260506045041 54 147 0.0 0.0 0.35 2.01 0.10 97 1009.5
20260506044533 54 147 0.0 0.0 0.31 1.93 0.09 97 1009.5
20260506044039 55 147 0.0 0.0 0.28 1.89 0.08 97 1009.5
20260506043545 55 147 0.0 0.0 0.24 1.85 0.07 97 1009.5
20260506043054 55 147 0.0 0.0 0.20 1.81 0.06 97 1009.5
20260506042531 55 147 0.0 0.0 0.16 1.77 0.06 97 1009.6
20260506042049 55 147 0.0 0.0 0.12 1.73 0.05 97 1009.5
20260506041551 55 147 0.0 0.0 0.12 1.73 0.05 97 1009.5
20260506041041 55 147 0.0 0.0 0.08 1.69 0.04 97 1009.6
20260506040546 55 147 0.0 0.0 0.08 1.69 0.04 97 1009.6
20260506040032 55 147 0.0 0.0 0.08 1.69 0.04 97 1009.6
20260506035558 55 147 0.0 0.0 0.04 1.73 0.03 97 1009.5
20260506035058 55 147 0.0 0.0 0.04 1.73 0.03 97 1009.6
20260506034532 55 147 0.0 0.0 0.00 1.69 0.02 97 1009.7
20260506034038 55 147 0.0 0.0 0.00 1.69 0.02 97 1009.7
20260506033602 55 147 0.0 0.0 0.00 1.69 0.02 97 1009.7
20260506033101 55 147 0.0 0.0 0.00 1.69 0.02 97 1009.9
20260506032542 55 147 0.0 0.0 0.00 1.69 0.02 97 1010.0
20260506032057 55 147 0.0 0.0 0.00 1.69 0.02 97 1010.0
20260506031534 55 147 0.0 0.0 0.00 1.69 0.02 97 1010.1
20260506031045 55 147 0.0 0.0 0.00 1.69 0.02 96 1010.1
20260506030550 55 147 0.0 0.0 0.00 1.69 0.02 96 1010.3
20260506030041 55 147 0.0 0.0 0.00 1.69 0.02 96 1010.2
20260506025603 55 147 0.0 0.0 0.00 1.69 0.02 96 1010.3
20260506025042 55 147 0.0 0.0 0.00 1.69 0.02 96 1010.3
20260506024547 55 147 0.0 0.0 0.00 1.69 0.02 96 1010.4
20260506024058 55 147 0.0 0.0 0.00 1.69 0.02 96 1010.4
20260506023558 55 147 0.0 0.0 0.00 1.69 0.02 96 1010.5
20260506023117 55 147 0.0 0.0 0.00 1.69 0.02 96 1010.5
20260506022532 55 147 0.0 0.0 0.00 1.69 0.02 96 1010.6
20260506022039 55 147 0.0 0.0 0.00 1.69 0.02 96 1010.6
20260506021542 55 147 0.0 0.0 0.04 1.69 0.02 96 1010.6
20260506021034 55 147 0.0 0.0 0.04 1.69 0.02 96 1010.6
20260506020538 55 147 0.0 0.0 0.08 1.69 0.02 96 1010.5
20260506020039 55 147 0.0 0.0 0.08 1.69 0.02 96 1010.5
20260506015602 55 147 0.0 0.0 0.12 1.73 0.02 96 1010.6
20260506015051 55 147 0.0 0.0 0.12 1.73 0.02 96 1010.6
20260506014545 55 147 0.0 0.0 0.12 1.73 0.02 96 1010.6
20260506014057 55 147 0.0 0.0 0.12 1.73 0.02 96 1010.7
20260506013532 55 147 0.0 0.0 0.12 1.73 0.02 96 1010.7
20260506013041 55 147 0.0 0.0 0.12 1.73 0.02 96 1010.8
20260506012545 55 147 0.0 0.0 0.12 1.73 0.02 96 1010.9
20260506012058 55 147 0.0 0.0 0.08 1.69 0.02 96 1011.1
20260506011534 55 147 0.0 0.0 0.08 1.69 0.02 96 1011.2
20260506011040 55 147 0.0 0.0 0.08 1.69 0.02 96 1011.3
20260506010604 55 147 0.0 0.0 0.04 1.65 0.01 96 1011.4
20260506010036 55 147 0.0 0.0 0.04 1.65 0.01 96 1011.6
20260506005540 55 147 0.0 0.0 0.00 1.61 0.00 96 1011.7
20260506005031 55 147 0.0 0.0 0.00 1.61 0.00 96 1011.7
20260506004536 55 147 0.0 0.0 0.00 1.61 0.00 96 1011.7
20260506004043 55 147 0.0 0.0 0.00 1.61 0.00 96 1011.7
20260506003548 55 147 0.0 0.0 0.00 1.61 0.00 96 1011.8
20260506003040 55 147 0.0 0.0 0.00 1.61 0.00 96 1011.8
20260506002542 55 147 0.0 0.0 0.00 1.61 0.00 96 1011.8
20260506002043 55 147 0.0 0.0 0.00 1.61 0.00 96 1011.8
20260506001547 55 148 0.0 0.0 0.00 1.61 0.00 96 1011.9
20260506001036 55 147 0.0 0.0 0.00 1.61 0.00 96 1012.0
20260506000542 55 147 0.0 0.0 0.00 1.61 0.00 96 1012.1
20260506000036 55 147 0.0 0.0 0.00 1.61 0.00 96 1012.2
20260505235536 55 147 0.0 0.0 0.00 1.61 0.00 96 1012.2
20260505235043 55 147 0.0 0.0 0.00 1.61 0.00 96 1012.1
20260505234603 55 147 0.0 0.0 0.00 1.61 0.00 96 1012.0
20260505234032 55 147 0.0 0.0 0.00 1.61 0.00 96 1012.1